Regional Weather Roundup
Issued by NWS Kansas City/Pleasant Hill, MO

Home | Current Version | Previous Version | Graphics & Text | Print | Product List | Glossary Off
Versions: 1 2 3 4 5 6 7 8 9 10 11 12 13 14 15 16 17 18 19 20 21 22 23 24 25 26 27 28 29 30 31 32 33 34 35 36 37 38 39 40 41 42 43 44 45 46 47 48 49 50

299
ASUS43 KEAX 311910
RWREAX

WEATHER ROUNDUP FOR EASTERN KANSAS AND NORTHWEST MISSOURI
NATIONAL WEATHER SERVICE KANSAS CITY/PLEASANT HILL MO
200 PM CDT TUE MAY 31 2016

KSZ040-057-103>105-MOZ028-029-037-043-312000-
...KANSAS CITY METROPOLITAN AREA...

CITY           SKY/WX    TMP DP  RH WIND       PRES   REMARKS
K.C. INTL      CLOUDY    75  64  68 W3        29.92F
K.C. DOWNTOWN  CLOUDY    79  64  60 CALM      29.90F
LEES SUMMIT    MOSUNNY   78  65  63 CALM      29.92F
OLATHE - IXD   PTSUNNY   75  63  66 CALM      29.92F
OLATHE - OJC   MOSUNNY   77  63  61 N6        29.91F
LAWRENCE       CLOUDY    76  62  62 SE5       29.92F

$$

MOZ001>008-011>017-020>025-030>033-038>040-044>046-053-054-312000-
...NORTHERN AND CENTRAL MISSOURI...

CITY           SKY/WX    TMP DP  RH WIND       PRES   REMARKS
ST. JOSEPH     CLOUDY    75  62  64 S10       29.91F
MOSBY            N/A     75  61  60 SW3       29.92F
WARRENSBURG    PTSUNNY   77  64  65 SE6       29.91F
WHITEMAN AFB   PTSUNNY   76  68  77 SW8       29.91F
CLINTON        PTSUNNY   77  66  69 SE5       29.92F
SEDALIA        CLOUDY    79  66  64 SW7G16    29.94F
WARSAW         NOT AVBL
CHILLICOTHE      N/A     77  66  68 SW7       29.93F
KIRKSVILLE     CLOUDY    77  62  59 S12       29.94F

$$

MOZ041-047>049-056>058-063>065-088>090-097-312000-
...EASTERN AND SOUTHERN MISSOURI...

CITY           SKY/WX    TMP DP  RH WIND       PRES   REMARKS
ST. LOUIS INTL PTSUNNY   81  63  54 CALM      29.96F
SPIRIT OF STL  PTSUNNY   82  65  56 SE8       29.93F
COLUMBIA       PTSUNNY   79  63  57 S15       29.94F
JEFFERSON CITY CLOUDY    80  63  55 SE12      29.93F
ROLLA          CLOUDY    77  64  64 S8        29.94F
SPRINGFIELD    MOSUNNY   78  64  61 E15       29.89F
BRANSON        PTSUNNY   77  64  65 SE6       29.96F
JOPLIN         CLOUDY    79  67  66 VRB6      29.89S
WEST PLAINS    CLOUDY    75  65  70 CALM      29.98F

$$

IAZ060-094-KSZ022-034>040-054-083-096-NEZ052-066-093-312000-
...KANSAS...SOUTHEAST NEBRASKA AND IOWA...

CITY           SKY/WX    TMP DP  RH WIND       PRES   REMARKS
TOPEKA           N/A     76  61  59 E3        29.91F
MANHATTAN      CLOUDY    78  60  53 N8        29.92F
EMPORIA        CLOUDY    75  61  61 N8        29.92F
CHANUTE        MOSUNNY   78  66  66 VRB3      29.90F
WICHITA        MOSUNNY   77  62  59 NE13      29.92F
OMAHA          CLOUDY    73  60  63 NW10      29.92F
LINCOLN        PTSUNNY   73  57  57 N12       29.96S
LAMONI         CLOUDY    73  63  70 S13       29.91F
DES MOINES     CLOUDY    80  60  50 SW16      29.89F

$$





USA.gov is the U.S. government's official web portal to all federal, state and local government web resources and services.